Regional Weather Roundup
Issued by NWS Charleston, WV

Home | Current Version | Previous Version | Text Only | Print | Product List | Glossary Off
Versions: 1 2 3 4 5 6 7 8 9 10 11 12 13 14 15 16 17 18 19 20 21 22 23 24 25 26 27 28 29 30 31 32 33 34 35 36 37 38 39 40 41 42 43 44 45 46 47 48 49 50

000
ASUS41 KRLX 190510
RWRRLX
West Virginia Regional Weather Roundup
National Weather Service Charleston WV
100 AM EDT SUN APR 19 2015

Note: "fair" indicates few or no clouds below 12,000 feet with no
significant weather and/or obstructions to visibility.

WVZ003-190600-
Northern Panhandle of West Virginia

CITY           SKY/WX    TMP DP  RH WIND       PRES   REMARKS
WHEELING       CLOUDY    61  40  45 NE9       30.05S
$$

WVZ009-190600-
Northwest West Virginia

CITY           SKY/WX    TMP DP  RH WIND       PRES   REMARKS
PARKERSBURG    PTCLDY    65  42  43 NE8       30.03S
$$

WVZ006-190600-
Western West Virginia

CITY           SKY/WX    TMP DP  RH WIND       PRES   REMARKS
HUNTINGTON     MOCLDY    66  43  43 NE7       29.94F
$$

WVZ015-190600-
West Central West Virginia

CITY           SKY/WX    TMP DP  RH WIND       PRES   REMARKS
CHARLESTON     PTCLDY    64  46  52 NE7       29.96F
$$

WVZ022-031-190600-
North Central West Virginia

CITY           SKY/WX    TMP DP  RH WIND       PRES   REMARKS
CLARKSBURG     CLEAR     55  44  66 CALM      30.04S
MORGANTOWN     MOCLDY    61  39  44 NE3       30.06S
$$

WVZ025-035-042-045-190600-
Southern West Virginia

CITY           SKY/WX    TMP DP  RH WIND       PRES   REMARKS
BECKLEY        MOCLDY    65  48  54 SE8       30.02F
LOGAN            N/A     66  45  45 N3        29.93F
BLUEFIELD      PTCLDY    66  51  58 MISG      30.04S
LEWISBURG      MOCLDY    66  48  51 E3        30.05S
$$

WVZ047-190600-
Northern Mountains of West Virginia

CITY           SKY/WX    TMP DP  RH WIND       PRES   REMARKS
ELKINS         PTCLDY    48  43  82 CALM      30.07F
$$

WVZ052-190600-
Eastern Panhandle of West Virginia

CITY           SKY/WX    TMP DP  RH WIND       PRES   REMARKS
MARTINSBURG    MOCLDY    56  49  77 SW3       30.03R
PETERSBURG     PTCLDY    50  43  78 CALM      30.07R
$$


USA.gov is the U.S. government's official web portal to all federal, state and local government web resources and services.